• En España
  • Lista de países
  • Para 7 días
  • Temperatura del agua
  • Mapa Satelital
  • El tiempo en el mapa
  • Informadores
  • user-avatar
    Iniciar sesión

    Tiempo cada hora Kommuna

    Hoy, 20 Julio, Viernes

    Tiempo Temperatura Precipitaciones Viento Presión Humedad
    00:00 +19°C° 0 mm 3 mps 743 mmHg 93%
    01:00 +19°C° 0 mm 3 mps 743 mmHg 94%
    02:00 +19°C° 0 mm 3 mps 743 mmHg 95%
    03:00 +19°C° 0,1 mm 3 mps 743 mmHg 95%
    04:00 +19°C° 0,1 mm 3 mps 742 mmHg 95%
    05:00 +19°C° 0,1 mm 3 mps 742 mmHg 95%
    06:00 +19°C° 0,1 mm 3 mps 742 mmHg 94%
    07:00 +19°C° 0,1 mm 3 mps 742 mmHg 93%
    08:00 +20°C° 0,1 mm 3 mps 742 mmHg 92%
    09:00 +20°C° 0,1 mm 3 mps 743 mmHg 92%
    10:00 +20°C° 0,1 mm 3 mps 743 mmHg 91%
    11:00 +20°C° 0,1 mm 3 mps 743 mmHg 90%
    12:00 +21°C° 0,2 mm 3 mps 743 mmHg 88%
    13:00 +22°C° 0,2 mm 3 mps 743 mmHg 87%
    14:00 +22°C° 0,2 mm 4 mps 742 mmHg 85%
    15:00 +24°C° 0,6 mm 3 mps 742 mmHg 85%
    16:00 +24°C° 0,6 mm 3 mps 742 mmHg 86%
    17:00 +24°C° 0,6 mm 3 mps 742 mmHg 86%
    18:00 +24°C° 0,6 mm 3 mps 742 mmHg 89%
    19:00 +22°C° 0,6 mm 3 mps 742 mmHg 91%
    20:00 +21°C° 0,6 mm 3 mps 742 mmHg 94%
    21:00 +21°C° 0,5 mm 3 mps 742 mmHg 94%
    22:00 +20°C° 0,5 mm 3 mps 742 mmHg 95%
    23:00 +20°C° 0,5 mm 3 mps 742 mmHg 96%

    Mañana, 21 Julio, Sábado

    Tiempo Temperatura Precipitaciones Viento Presión Humedad
    00:00 +20°C° 0,1 mm 3 mps 742 mmHg 96%
    01:00 +20°C° 0,1 mm 3 mps 742 mmHg 97%
    02:00 +19°C° 0,1 mm 3 mps 742 mmHg 97%
    03:00 +20°C° 0,1 mm 3 mps 742 mmHg 97%
    04:00 +20°C° 0,1 mm 4 mps 742 mmHg 97%
    05:00 +20°C° 0,1 mm 4 mps 742 mmHg 97%
    06:00 +20°C° 0,1 mm 4 mps 743 mmHg 96%
    07:00 +20°C° 0,1 mm 4 mps 743 mmHg 95%
    08:00 +20°C° 0,1 mm 4 mps 743 mmHg 94%
    09:00 +21°C° 0 mm 4 mps 743 mmHg 92%
    10:00 +21°C° 0 mm 4 mps 743 mmHg 90%
    11:00 +22°C° 0 mm 4 mps 743 mmHg 88%
    12:00 +23°C° 0 mm 4 mps 743 mmHg 84%
    13:00 +25°C° 0 mm 4 mps 743 mmHg 80%
    14:00 +25°C° 0 mm 4 mps 743 mmHg 76%
    15:00 +26°C° 0,1 mm 4 mps 743 mmHg 76%
    16:00 +26°C° 0,1 mm 4 mps 743 mmHg 76%
    17:00 +26°C° 0,1 mm 4 mps 743 mmHg 76%
    18:00 +25°C° 0,1 mm 4 mps 743 mmHg 81%
    19:00 +22°C° 0,1 mm 3 mps 743 mmHg 85%
    20:00 +21°C° 0,1 mm 3 mps 743 mmHg 90%
    21:00 +20°C° 0 mm 3 mps 743 mmHg 92%
    22:00 +20°C° 0 mm 3 mps 744 mmHg 94%
    23:00 +19°C° 0 mm 3 mps 744 mmHg 96%

    Pasado mañana, 22 Julio, Domingo

    Tiempo Temperatura Precipitaciones Viento Presión Humedad
    00:00 +18°C° 0 mm 3 mps 744 mmHg 97%
    01:00 +18°C° 0 mm 3 mps 744 mmHg 97%
    02:00 +18°C° 0 mm 3 mps 744 mmHg 98%
    03:00 +18°C° 0 mm 3 mps 744 mmHg 97%
    04:00 +18°C° 0 mm 3 mps 744 mmHg 95%
    05:00 +18°C° 0 mm 3 mps 744 mmHg 94%
    06:00 +18°C° 0 mm 3 mps 744 mmHg 93%
    07:00 +19°C° 0 mm 3 mps 744 mmHg 92%
    08:00 +19°C° 0 mm 3 mps 744 mmHg 90%
    09:00 +20°C° 0 mm 3 mps 744 mmHg 89%
    10:00 +20°C° 0 mm 3 mps 744 mmHg 88%
    11:00 +21°C° 0 mm 3 mps 744 mmHg 87%
    12:00 +21°C° 0,1 mm 3 mps 744 mmHg 88%
    13:00 +21°C° 0,1 mm 3 mps 744 mmHg 88%
    14:00 +21°C° 0,1 mm 3 mps 744 mmHg 89%
    15:00 +21°C° 0,1 mm 3 mps 744 mmHg 89%
    16:00 +21°C° 0,1 mm 3 mps 744 mmHg 89%
    17:00 +21°C° 0,1 mm 3 mps 744 mmHg 88%
    18:00 +21°C° 0,1 mm 3 mps 744 mmHg 90%
    19:00 +20°C° 0,1 mm 3 mps 744 mmHg 91%
    20:00 +20°C° 0,1 mm 3 mps 744 mmHg 93%
    21:00 +20°C° 0,1 mm 3 mps 744 mmHg 93%
    22:00 +19°C° 0,1 mm 3 mps 744 mmHg 94%
    23:00 +19°C° 0,1 mm 3 mps 744 mmHg 95%

    23 Julio, Lunes

    Tiempo Temperatura Precipitaciones Viento Presión Humedad
    00:00 +19°C° 0 mm 3 mps 744 mmHg 95%
    01:00 +19°C° 0 mm 3 mps 744 mmHg 96%
    02:00 +19°C° 0 mm 3 mps 744 mmHg 97%
    03:00 +19°C° 0 mm 3 mps 744 mmHg 96%
    04:00 +19°C° 0 mm 3 mps 744 mmHg 96%
    05:00 +19°C° 0 mm 3 mps 744 mmHg 95%
    06:00 +19°C° 0,1 mm 3 mps 744 mmHg 95%
    07:00 +19°C° 0,1 mm 3 mps 744 mmHg 95%
    08:00 +19°C° 0,1 mm 4 mps 744 mmHg 94%
    09:00 +19°C° 0,1 mm 3 mps 744 mmHg 93%
    10:00 +20°C° 0,1 mm 3 mps 744 mmHg 92%
    11:00 +20°C° 0,1 mm 3 mps 744 mmHg 91%
    12:00 +20°C° 0,1 mm 3 mps 744 mmHg 90%
    13:00 +21°C° 0,1 mm 3 mps 744 mmHg 88%
    14:00 +21°C° 0,1 mm 3 mps 744 mmHg 87%
    15:00 +21°C° 0 mm 3 mps 744 mmHg 88%
    16:00 +21°C° 0 mm 3 mps 744 mmHg 89%
    17:00 +20°C° 0 mm 3 mps 744 mmHg 90%
    18:00 +20°C° 0 mm 3 mps 744 mmHg 91%
    19:00 +20°C° 0 mm 2 mps 744 mmHg 93%
    20:00 +20°C° 0 mm 2 mps 744 mmHg 94%
    21:00 +20°C° 0,1 mm 2 mps 744 mmHg 95%
    22:00 +20°C° 0,1 mm 2 mps 744 mmHg 96%
    23:00 +20°C° 0,1 mm 3 mps 744 mmHg 97%

    24 Julio, Martes

    Tiempo Temperatura Precipitaciones Viento Presión Humedad
    00:00 +19°C° 0,1 mm 3 mps 744 mmHg 97%
    01:00 +19°C° 0,1 mm 3 mps 744 mmHg 97%
    02:00 +19°C° 0,1 mm 3 mps 744 mmHg 98%
    03:00 +19°C° 0 mm 3 mps 744 mmHg 98%
    04:00 +19°C° 0 mm 3 mps 744 mmHg 97%
    05:00 +19°C° 0 mm 3 mps 744 mmHg 97%
    06:00 +19°C° 0,1 mm 3 mps 744 mmHg 96%
    07:00 +19°C° 0,1 mm 3 mps 745 mmHg 96%
    08:00 +20°C° 0,1 mm 3 mps 745 mmHg 95%
    09:00 +20°C° 0 mm 3 mps 745 mmHg 94%
    10:00 +20°C° 0 mm 3 mps 745 mmHg 93%
    11:00 +21°C° 0 mm 3 mps 746 mmHg 92%
    12:00 +22°C° 0,1 mm 3 mps 746 mmHg 90%
    13:00 +22°C° 0,1 mm 3 mps 746 mmHg 88%
    14:00 +24°C° 0,1 mm 3 mps 746 mmHg 86%
    15:00 +24°C° 0,1 mm 3 mps 746 mmHg 84%
    16:00 +25°C° 0,1 mm 3 mps 746 mmHg 83%
    17:00 +25°C° 0,1 mm 3 mps 746 mmHg 81%
    18:00 +24°C° 0 mm 3 mps 746 mmHg 85%
    19:00 +23°C° 0 mm 2 mps 746 mmHg 90%
    20:00 +21°C° 0 mm 2 mps 746 mmHg 94%
    21:00 +21°C° 0 mm 2 mps 746 mmHg 95%
    22:00 +20°C° 0 mm 2 mps 747 mmHg 96%
    23:00 +20°C° 0 mm 2 mps 747 mmHg 96%

    25 Julio, Miércoles

    Tiempo Temperatura Precipitaciones Viento Presión Humedad
    00:00 +19°C° 0 mm 2 mps 747 mmHg 97%
    01:00 +19°C° 0 mm 2 mps 747 mmHg 97%
    02:00 +19°C° 0 mm 2 mps 747 mmHg 98%
    03:00 +19°C° 0 mm 2 mps 747 mmHg 98%
    04:00 +19°C° 0 mm 2 mps 748 mmHg 97%
    05:00 +19°C° 0 mm 2 mps 748 mmHg 97%
    06:00 +21°C° 0 mm 2 mps 748 mmHg 92%
    07:00 +23°C° 0 mm 2 mps 748 mmHg 87%
    08:00 +25°C° 0 mm 2 mps 748 mmHg 82%
    09:00 +26°C° 0,3 mm 3 mps 748 mmHg 78%
    10:00 +27°C° 0,3 mm 3 mps 748 mmHg 74%
    11:00 +28°C° 0,3 mm 3 mps 748 mmHg 70%
    12:00 +28°C° 0,8 mm 3 mps 748 mmHg 71%
    13:00 +28°C° 0,8 mm 3 mps 748 mmHg 73%
    14:00 +28°C° 0,8 mm 3 mps 748 mmHg 74%
    15:00 +27°C° 0,6 mm 3 mps 748 mmHg 76%
    16:00 +27°C° 0,6 mm 3 mps 749 mmHg 79%
    17:00 +27°C° 0,6 mm 2 mps 749 mmHg 82%
    18:00 +25°C° 0,2 mm 2 mps 749 mmHg 85%
    19:00 +24°C° 0,2 mm 2 mps 749 mmHg 88%
    20:00 +21°C° 0,2 mm 2 mps 749 mmHg 92%
    21:00 +20°C° 0 mm 2 mps 749 mmHg 92%
    22:00 +20°C° 0 mm 2 mps 749 mmHg 92%
    23:00 +19°C° 0 mm 2 mps 749 mmHg 93%
    Mostrar más